[[{"header":{"parameterUnit":"m.s-1","parameterCategory":1,"la1":30.2991,"la2":30.254,"lo1":-89.0895,"lo2":-89.0444,"dy":0.0017,"dx":0.0017,"nx":28,"ny":28,"refTime":"2024-10-07T03:00:00:Z","depth":0,"parameterNumber":2,"parameterNumberName":"U-component_of_WINDS"},"data":[0,0,0,0,0,0,0,0,0,0,0,0,0,0,0,0,0,0,0,0,0,0,0,0,0,0,0,0,0,0,0,0,0,0,0,0,0,0,0,0,0,0,0,0,0,0,0,0,0,0,0,0,0,0,0,0,0,0,-2.7436,-2.7436,0,-2.7484,-2.7484,-2.7485,-2.7418,-2.7416,-2.7413,-2.7411,-2.7462,-2.7466,-2.7469,0,0,0,0,0,0,0,0,0,0,0,0,0,-2.7287,-2.729,-2.7436,-2.7436,-2.7437,-2.7484,-2.7484,-2.7485,-2.7418,-2.7416,-2.7413,-2.741,-2.7461,-2.7465,-2.747,0,0,0,0,0,0,0,0,0,0,0,0,0,-2.7345,-2.7291,-2.7436,-2.7409,-2.7407,-2.7484,-2.7484,-2.7485,-2.7419,-2.7416,-2.7412,-2.7409,-2.746,-2.7465,-2.747,-2.7575,0,0,-2.7487,-2.7489,0,0,0,0,0,0,0,0,-2.7342,-2.735,-2.7412,-2.7411,-2.7409,-2.7441,-2.7451,-2.7516,-2.742,-2.7415,-2.7411,-2.7407,-2.7458,-2.7464,-2.7481,-2.7578,-2.758,-2.7487,-2.7491,-2.7493,-2.7494,0,0,0,0,0,0,0,-2.7338,-2.7348,-2.7455,-2.7413,-2.7411,-2.7395,-2.74,-2.7463,-2.7456,-2.7415,-2.741,-2.7417,-2.7457,-2.7476,-2.7481,-2.7581,-2.7487,-2.7492,-2.7495,-2.7497,-2.7766,-2.7769,0,0,0,0,0,0,-2.7337,-2.7345,-2.7453,-2.7456,-2.7366,-2.7401,-2.7406,-2.7435,-2.7455,-2.7455,-2.742,-2.7413,-2.7468,-2.7475,-2.7483,-2.7607,-2.7493,-2.7498,-2.7501,-2.7762,-2.7766,-2.7771,0,0,0,0,0,0,-2.7334,-2.7347,-2.7451,-2.7399,-2.7411,-2.7407,-2.744,-2.7437,-2.7456,-2.7459,-2.7457,-2.744,-2.7466,-2.7475,-2.7553,-2.7608,-2.75,-2.7505,-2.7757,-2.7763,-2.7769,-2.7857,0,0,0,0,0,0,-2.733,-2.7346,-2.7386,-2.7401,-2.7414,-2.752,-2.7444,-2.7441,-2.7465,-2.7458,-2.7478,-2.7477,-2.7464,-2.7545,-2.7558,-2.7613,-2.7509,-2.7752,-2.776,-2.7767,-2.7849,-2.7865,-2.7878,0,0,0,0,0,-2.7325,-2.741,-2.7388,-2.7402,-2.7464,-2.7524,-2.7531,-2.7513,-2.747,-2.751,-2.7512,-2.7477,-2.7599,-2.7553,-2.7567,-2.7626,-2.7749,-2.7758,-2.7766,-2.7842,-2.7862,-2.7878,0,0,0,0,0,0,-2.7403,-2.7411,-2.7388,-2.748,-2.7501,-2.7512,-2.7562,-2.7534,-2.7569,-2.7561,-2.7537,-2.7542,-2.7624,-2.7632,-2.7581,-2.7728,-2.7667,-2.7679,-2.772,-2.7738,-2.7753,-2.775,-2.7514,0,0,0,0,0,-2.743,-2.7477,-2.7482,-2.7563,-2.7575,-2.7567,-2.7592,-2.7576,-2.7598,-2.7607,-2.7614,-2.7637,-2.768,-2.7709,-2.775,-2.7849,-2.7853,-2.7896,-2.7911,-2.7923,-2.7934,-2.7987,-2.8006,-2.7799,-2.7799,-2.7799,0,0,-2.7488,-2.7499,-2.753,-2.7579,-2.7594,-2.7644,-2.7575,-2.7631,-2.7668,-2.7615,-2.7689,-2.7695,-2.7718,-2.7807,-2.7847,-2.7816,-2.7991,-2.7934,-2.7944,-2.7948,-2.7998,-2.8018,-2.8035,-2.7805,-2.7804,-2.7803,0,0,-2.762,-2.7632,-2.7701,-2.7717,-2.774,-2.7733,-2.775,-2.7765,-2.7766,-2.7839,-2.7801,-2.7844,-2.792,-2.7938,-2.7958,-2.8094,-2.8064,-2.8108,-2.8186,-2.8238,-2.8255,-2.8269,-2.8318,-2.8336,-2.8119,-2.8119,-2.8119,0,-2.769,-2.7763,-2.774,-2.7798,-2.7821,-2.7774,-2.7844,-2.786,-2.7896,-2.7912,-2.7877,-2.7971,-2.7983,-2.8076,-2.8109,-2.8126,-2.8144,-2.8107,-2.8254,-2.8268,-2.8281,-2.8328,-2.8347,-2.8124,-2.8124,-2.8123,-2.8123,0,-2.7848,-2.7899,-2.7951,-2.7986,-2.8014,-2.8078,-2.8065,-2.8096,-2.8077,-2.8074,-2.8149,-2.8162,-2.8204,-2.8225,-2.8207,-2.8315,-2.8295,-2.8258,-2.8196,-2.8307,-2.835,-2.8368,-2.8132,-2.813,-2.8129,-2.8127,0,0,-2.8032,-2.8051,-2.8071,-2.8086,-2.8107,-2.8146,-2.8207,-2.8247,-2.8275,-2.83,-2.8352,-2.8416,-2.8381,-2.8403,-2.8386,-2.8432,-2.854,-2.8388,-2.8389,-2.8417,-2.866,-2.8689,-2.871,-2.8519,-2.8522,-2.8525,-2.8658,0,-2.8163,-2.8269,-2.8249,-2.8352,-2.84,-2.8355,-2.8408,-2.8427,-2.8426,-2.8466,-2.8465,-2.8511,-2.8461,-2.8474,-2.8517,-2.8518,-2.8589,-2.8508,-2.8567,-2.8569,-2.8564,-2.8733,-2.8764,-2.8889,-2.8675,-2.8678,-2.868,0,-2.8332,-2.8363,-2.847,-2.8483,-2.8502,-2.8551,-2.8586,-2.8624,-2.8644,-2.864,-2.8664,-2.8639,-2.87,-2.8636,-2.872,-2.8666,-2.8688,-2.8692,-2.8697,-2.8703,-2.8632,-2.8744,-2.8928,-2.8948,-2.8706,-2.8704,-2.8702,0,-2.8456,-2.8525,-2.8598,-2.8612,-2.8628,-2.8663,-2.8672,-2.8688,-2.8714,-2.8744,-2.876,-2.8797,-2.8818,-2.8848,-2.8833,-2.8788,-2.892,-2.8855,-2.8919,-2.892,-2.895,-2.8949,-2.9142,-2.8963,-2.8963,-2.8963,-2.8962,0,-2.8606,-2.8674,-2.8654,-2.8699,-2.8773,-2.875,-2.8824,-2.8828,-2.8842,-2.8888,-2.8851,-2.8894,-2.8872,-2.8914,-2.8902,-2.8974,-2.8983,-2.8982,-2.8979,-2.8986,-2.8987,-2.9002,-2.8993,-2.8968,-2.8966,-2.8966,-2.8965,0,-2.8759,-2.8748,-2.8825,-2.8833,-2.8837,-2.8892,-2.89,-2.8942,-2.8937,-2.8995,-2.9007,-2.9,-2.9047,-2.9035,-2.9086,-2.9078,-2.9169,-2.9154,-2.9162,-2.9159,-2.9224,-2.9218,-2.9434,-2.9462,-2.9264,-2.9266,-2.9268,0,-2.8856,-2.8907,-2.8921,-2.8948,-2.896,-2.9004,-2.9029,-2.9008,-2.9035,-2.9061,-2.9101,-2.9144,-2.9178,-2.9255,-2.9255,-2.9294,-2.928,-2.9353,-2.9286,-2.9292,-2.9282,-2.928,-2.9285,-2.9367,-2.9369,-2.9371,-2.9373,0,-2.903,-2.9022,-2.9059,-2.9095,-2.9126,-2.9153,-2.9177,-2.9201,-2.9181,-2.9214,-2.9261,-2.9287,-2.9339,-2.9383,-2.9418,-2.9427,-2.9397,-2.9393,-2.941,-2.9419,-2.9422,-2.9422,-2.92,-2.9389,-2.9387,-2.9386,-2.9385,-2.9385,-2.9159,-2.9202,-2.9218,-2.9261,-2.9276,-2.9299,-2.9339,-2.9339,-2.9377,-2.9418,-2.9402,-2.9456,-2.9474,-2.9519,-2.9532,-2.9574,-2.9546,-2.9571,-2.9577,-2.9584,-2.9593,-2.9414,-2.958,-2.958,-2.9579,-2.9579,-2.9578,0,-2.9332,-2.934,-2.9379,-2.9413,-2.9447,-2.9414,-2.9438,-2.9469,-2.9516,-2.9535,-2.9569,-2.9623,-2.9665,-2.9667,-2.9707,-2.974,-2.9727,-2.9751,-2.9749,-2.9752,-2.9615,-2.9596,-2.9761,-2.9761,-2.9761,-2.9761,-2.9761,-2.976,-2.9426,-2.9497,-2.949,-2.9569,-2.9576,-2.9628,-2.9645,-2.9666,-2.9681,-2.9743,-2.9777,-2.9778,-2.979,-2.983,-2.9867,-2.9866,-2.9883,-2.9913,-2.9907,-2.9779,-2.9761,-2.9744,-2.9727,-2.9916,-2.9916,-3.0041,-3.0042,-3.0043]},{"header":{"parameterUnit":"m.s-1","parameterCategory":1,"la1":30.2991,"la2":30.254,"lo1":-89.0895,"lo2":-89.0444,"dy":0.0017,"dx":0.0017,"nx":28,"ny":28,"refTime":"2024-10-07T03:00:00:Z","depth":0,"parameterNumber":3,"parameterNumberName":"V-component_of_WINDS"},"data":[0,0,0,0,0,0,0,0,0,0,0,0,0,0,0,0,0,0,0,0,0,0,0,0,0,0,0,0,0,0,0,0,0,0,0,0,0,0,0,0,0,0,0,0,0,0,0,0,0,0,0,0,0,0,0,0,0,0,-5.4418,-5.4418,0,-5.446,-5.4461,-5.4461,-5.4368,-5.4365,-5.4362,-5.4359,-5.4399,-5.4403,-5.4406,0,0,0,0,0,0,0,0,0,0,0,0,0,-5.4251,-5.4255,-5.4418,-5.4418,-5.4419,-5.446,-5.4461,-5.4462,-5.4368,-5.4365,-5.4361,-5.4357,-5.4398,-5.4402,-5.4407,0,0,0,0,0,0,0,0,0,0,0,0,0,-5.4312,-5.4256,-5.4418,-5.4377,-5.4374,-5.446,-5.4461,-5.4462,-5.4369,-5.4364,-5.436,-5.4356,-5.4396,-5.4402,-5.4407,-5.4534,0,0,-5.4425,-5.4428,0,0,0,0,0,0,0,0,-5.4308,-5.4318,-5.4383,-5.438,-5.4377,-5.4404,-5.4417,-5.4486,-5.437,-5.4371,-5.4359,-5.4354,-5.4404,-5.4409,-5.4427,-5.4535,-5.4537,-5.4426,-5.4429,-5.4432,-5.4433,0,0,0,0,0,0,0,-5.4304,-5.4315,-5.4434,-5.4384,-5.438,-5.4356,-5.4359,-5.4429,-5.4412,-5.437,-5.4364,-5.437,-5.4402,-5.4421,-5.4427,-5.4538,-5.4426,-5.4431,-5.4434,-5.4437,-5.4751,-5.4755,0,0,0,0,0,0,-5.4306,-5.4312,-5.4433,-5.4436,-5.4331,-5.4362,-5.4366,-5.44,-5.4411,-5.4409,-5.4374,-5.4366,-5.4414,-5.442,-5.4428,-5.4576,-5.4432,-5.4437,-5.444,-5.4746,-5.4752,-5.4757,0,0,0,0,0,0,-5.4302,-5.4317,-5.4431,-5.4372,-5.4385,-5.437,-5.4408,-5.4403,-5.4423,-5.4414,-5.441,-5.4398,-5.441,-5.442,-5.4508,-5.4576,-5.444,-5.4445,-5.474,-5.4748,-5.4754,-5.4873,0,0,0,0,0,0,-5.4298,-5.4317,-5.4366,-5.4374,-5.4389,-5.4512,-5.4413,-5.4407,-5.4434,-5.4423,-5.4435,-5.4433,-5.4408,-5.45,-5.4514,-5.4581,-5.445,-5.4734,-5.4743,-5.4752,-5.4863,-5.4883,-5.4901,0,0,0,0,0,-5.4292,-5.4397,-5.4369,-5.4384,-5.445,-5.4517,-5.4525,-5.4495,-5.444,-5.4488,-5.4482,-5.4432,-5.4566,-5.451,-5.4525,-5.4595,-5.4729,-5.4741,-5.4751,-5.4854,-5.4879,-5.49,0,0,0,0,0,0,-5.4395,-5.4397,-5.4366,-5.4476,-5.4497,-5.4501,-5.4561,-5.4522,-5.4558,-5.4546,-5.4506,-5.451,-5.4605,-5.4609,-5.4546,-5.4717,-5.4638,-5.4653,-5.4711,-5.4735,-5.4754,-5.4751,-5.4454,0,0,0,0,0,-5.4431,-5.4487,-5.4484,-5.4582,-5.4594,-5.4576,-5.4604,-5.4579,-5.4598,-5.4606,-5.4607,-5.4626,-5.4672,-5.4704,-5.4746,-5.4863,-5.4863,-5.4918,-5.4937,-5.4953,-5.4966,-5.5027,-5.5051,-5.4793,-5.4793,-5.4793,0,0,-5.4505,-5.4513,-5.455,-5.4603,-5.4616,-5.4673,-5.4584,-5.4648,-5.469,-5.4615,-5.4699,-5.47,-5.4719,-5.4822,-5.4867,-5.4828,-5.5037,-5.4967,-5.4979,-5.4984,-5.504,-5.5065,-5.5087,-5.48,-5.4799,-5.4798,0,0,-5.4669,-5.4681,-5.4763,-5.4778,-5.48,-5.4787,-5.4807,-5.4816,-5.4814,-5.4898,-5.4843,-5.4891,-5.4972,-5.4988,-5.5006,-5.5176,-5.5131,-5.519,-5.529,-5.5349,-5.537,-5.5388,-5.5447,-5.5469,-5.5203,-5.5204,-5.5204,0,-5.4757,-5.4843,-5.481,-5.4878,-5.4902,-5.4839,-5.4921,-5.4937,-5.4971,-5.4988,-5.4944,-5.5044,-5.5052,-5.5157,-5.5199,-5.5216,-5.5236,-5.5189,-5.537,-5.5387,-5.5403,-5.546,-5.5483,-5.5211,-5.521,-5.5209,-5.5208,0,-5.495,-5.501,-5.5074,-5.511,-5.5141,-5.5216,-5.5193,-5.5228,-5.52,-5.5192,-5.5277,-5.5285,-5.5327,-5.535,-5.5323,-5.5452,-5.5426,-5.5377,-5.5297,-5.5436,-5.5488,-5.5509,-5.5221,-5.5218,-5.5216,-5.5214,0,0,-5.518,-5.5197,-5.5221,-5.5236,-5.5255,-5.5299,-5.5371,-5.5413,-5.5444,-5.5469,-5.5527,-5.5597,-5.5551,-5.5572,-5.5546,-5.5599,-5.5732,-5.5542,-5.5542,-5.5577,-5.5873,-5.591,-5.5936,-5.5703,-5.5707,-5.571,-5.5871,0,-5.5342,-5.5467,-5.5439,-5.5561,-5.5615,-5.5555,-5.5617,-5.5635,-5.5628,-5.5672,-5.5664,-5.5714,-5.565,-5.5662,-5.5712,-5.5705,-5.5791,-5.5693,-5.5755,-5.5758,-5.5752,-5.5963,-5.6003,-5.6154,-5.5891,-5.5895,-5.5897,0,-5.5548,-5.5582,-5.571,-5.572,-5.5741,-5.5798,-5.5834,-5.5877,-5.5895,-5.5886,-5.591,-5.5874,-5.5943,-5.5863,-5.5957,-5.5891,-5.5915,-5.5915,-5.592,-5.5925,-5.5836,-5.5973,-5.6202,-5.6225,-5.5929,-5.5927,-5.5924,0,-5.5702,-5.578,-5.5866,-5.5881,-5.5895,-5.5936,-5.5943,-5.5956,-5.5984,-5.6015,-5.6032,-5.607,-5.6091,-5.6121,-5.6096,-5.604,-5.6194,-5.6111,-5.6188,-5.6188,-5.6222,-5.6221,-5.6459,-5.6238,-5.6238,-5.6238,-5.6237,0,-5.5886,-5.5966,-5.5936,-5.5989,-5.6077,-5.6043,-5.6131,-5.613,-5.6143,-5.6194,-5.6144,-5.6193,-5.6156,-5.6201,-5.6182,-5.6262,-5.6272,-5.6266,-5.626,-5.6271,-5.6271,-5.6285,-5.6274,-5.6244,-5.6242,-5.6241,-5.624,0,-5.6073,-5.6056,-5.6146,-5.6152,-5.6155,-5.622,-5.6223,-5.6272,-5.6262,-5.6327,-5.634,-5.6324,-5.6374,-5.6352,-5.6404,-5.6391,-5.6494,-5.6474,-5.6489,-5.6484,-5.6561,-5.6554,-5.6816,-5.6848,-5.6608,-5.661,-5.6612,0,-5.6191,-5.6252,-5.6264,-5.6296,-5.6307,-5.6357,-5.6385,-5.6354,-5.6384,-5.6409,-5.6455,-5.6501,-5.6536,-5.6619,-5.6611,-5.6651,-5.6631,-5.672,-5.6636,-5.6645,-5.6632,-5.6628,-5.6634,-5.6737,-5.674,-5.6742,-5.6744,0,-5.6403,-5.6391,-5.6434,-5.6474,-5.6509,-5.6538,-5.6563,-5.6591,-5.6561,-5.6597,-5.6649,-5.6676,-5.673,-5.6777,-5.6811,-5.6817,-5.6775,-5.677,-5.679,-5.6801,-5.6807,-5.6804,-5.6534,-5.6764,-5.6762,-5.6761,-5.6759,-5.6759,-5.6559,-5.661,-5.6626,-5.6675,-5.6691,-5.6715,-5.6761,-5.6757,-5.68,-5.6842,-5.6821,-5.6881,-5.6895,-5.6938,-5.6949,-5.6995,-5.6959,-5.6988,-5.6995,-5.7003,-5.7013,-5.68,-5.7001,-5.7,-5.7,-5.6999,-5.6999,0,-5.6767,-5.6775,-5.682,-5.6857,-5.6896,-5.6854,-5.6879,-5.6914,-5.6967,-5.6986,-5.7022,-5.708,-5.7125,-5.7121,-5.7161,-5.7198,-5.718,-5.7209,-5.7206,-5.7208,-5.7042,-5.7021,-5.7223,-5.7223,-5.7223,-5.7223,-5.7223,-5.7223,-5.688,-5.6964,-5.6954,-5.7045,-5.7051,-5.7111,-5.7128,-5.715,-5.7165,-5.7233,-5.727,-5.7267,-5.7276,-5.7317,-5.7355,-5.7352,-5.7369,-5.7406,-5.7397,-5.7242,-5.722,-5.7199,-5.7178,-5.7411,-5.7411,-5.7559,-5.756,-5.7561]}]]